TimeICT,TemperatureF,Dew PointF,Humidity,Sea Level PressureIn,VisibilityMPH,Wind Direction,Wind SpeedMPH,Gust SpeedMPH,PrecipitationIn,Events,Conditions,WindDirDegrees,DateUTC
12:00 AM,78.8,71.6,78,29.80,5.0,Variable,4.6,-,N/A,,Mostly Cloudy,0,2014-02-08 17:00:00
12:30 AM,78.8,71.6,78,29.80,5.0,Variable,3.5,-,N/A,,Mostly Cloudy,0,2014-02-08 17:30:00
1:00 AM,81,74,75,29.76,5,Calm,Calm,,,,Mist,,2014-02-08 18:00:00
1:00 AM,78.8,71.6,78,29.80,5.0,NNW,3.5,-,N/A,,Mostly Cloudy,330,2014-02-08 18:00:00
1:30 AM,77.0,71.6,83,29.80,5.0,Calm,Calm,-,N/A,,Mostly Cloudy,0,2014-02-08 18:30:00
2:00 AM,75.2,71.6,89,29.77,5.0,Calm,Calm,-,N/A,,Mostly Cloudy,0,2014-02-08 19:00:00
2:30 AM,77.0,71.6,83,29.77,5.0,NE,3.5,-,N/A,,Mostly Cloudy,40,2014-02-08 19:30:00
3:00 AM,77.0,71.6,83,29.77,5.0,Variable,2.3,-,N/A,,Mostly Cloudy,0,2014-02-08 20:00:00
3:30 AM,75.2,71.6,89,29.77,5.0,Variable,2.3,-,N/A,,Mostly Cloudy,0,2014-02-08 20:30:00
4:00 AM,78,73,79,29.72,5,Calm,Calm,,,,Mist,,2014-02-08 21:00:00
4:00 AM,75.2,71.6,89,29.77,5.0,Variable,1.2,-,N/A,,Mostly Cloudy,0,2014-02-08 21:00:00
4:30 AM,77.0,69.8,78,29.77,5.0,Variable,2.3,-,N/A,,Mostly Cloudy,0,2014-02-08 21:30:00
5:00 AM,75.2,69.8,83,29.77,5.0,Variable,2.3,-,N/A,,Mostly Cloudy,0,2014-02-08 22:00:00
5:30 AM,77.0,69.8,78,29.77,5.0,NE,4.6,-,N/A,,Mostly Cloudy,50,2014-02-08 22:30:00
6:00 AM,75.2,69.8,83,29.77,5.0,NE,3.5,-,N/A,,Mostly Cloudy,50,2014-02-08 23:00:00
6:30 AM,77.0,69.8,78,29.77,5.0,NE,4.6,-,N/A,,Mostly Cloudy,40,2014-02-08 23:30:00
7:00 AM,74,72,91,29.75,4,Calm,Calm,,,,Mist,,2014-02-09 00:00:00
7:00 AM,73.4,69.8,88,29.80,4.3,Variable,2.3,-,N/A,,Mostly Cloudy,0,2014-02-09 00:00:00
7:30 AM,75.2,71.6,89,29.80,5.0,Variable,1.2,-,N/A,,Mostly Cloudy,0,2014-02-09 00:30:00
8:00 AM,78.8,71.6,78,29.83,5.0,NE,4.6,-,N/A,,Mostly Cloudy,50,2014-02-09 01:00:00
8:30 AM,78.8,71.6,78,29.83,5.6,ENE,5.8,-,N/A,,Scattered Clouds,60,2014-02-09 01:30:00
9:00 AM,80.6,69.8,70,29.83,6.2,NE,5.8,-,N/A,,Scattered Clouds,50,2014-02-09 02:00:00
9:30 AM,82.4,69.8,66,29.86,6.2,NNE,5.8,-,N/A,,Scattered Clouds,30,2014-02-09 02:30:00
10:00 AM,87,70,47,29.80,6,ENE,3.5,,,,Scattered Clouds,60,2014-02-09 03:00:00
10:00 AM,82.4,68.0,62,29.86,6.2,NE,5.8,-,N/A,,Scattered Clouds,40,2014-02-09 03:00:00
10:30 AM,86.0,69.8,58,29.86,6.2,NE,5.8,-,N/A,,Scattered Clouds,50,2014-02-09 03:30:00
11:00 AM,86.0,68.0,55,29.83,6.2,ENE,6.9,-,N/A,,Mostly Cloudy,60,2014-02-09 04:00:00
11:30 AM,86.0,69.8,58,29.83,6.2,WNW,8.1,-,N/A,,Mostly Cloudy,300,2014-02-09 04:30:00
12:00 PM,86.0,69.8,58,29.83,6.2,West,9.2,-,N/A,,Mostly Cloudy,270,2014-02-09 05:00:00
12:30 PM,87.8,69.8,55,29.80,6.2,WNW,15.0,-,N/A,,Scattered Clouds,290,2014-02-09 05:30:00
1:00 PM,88,70,45,29.75,6,West,5.8,,,,Scattered Clouds,270,2014-02-09 06:00:00
1:00 PM,87.8,66.2,49,29.80,6.2,West,11.5,-,N/A,,Scattered Clouds,270,2014-02-09 06:00:00
1:30 PM,87.8,66.2,49,29.77,6.2,WNW,11.5,-,N/A,,Scattered Clouds,290,2014-02-09 06:30:00
2:00 PM,87.8,68.0,52,29.77,6.2,West,13.8,-,N/A,,Scattered Clouds,270,2014-02-09 07:00:00
2:30 PM,87.8,66.2,49,29.77,6.2,WNW,15.0,-,N/A,,Scattered Clouds,290,2014-02-09 07:30:00
3:00 PM,87.8,62.6,43,29.74,6.2,West,17.3,-,N/A,,Scattered Clouds,280,2014-02-09 08:00:00
3:30 PM,87.8,62.6,43,29.74,6.2,WNW,13.8,-,N/A,,Scattered Clouds,290,2014-02-09 08:30:00
4:00 PM,87,67,41,29.71,6,WNW,5.8,,,,Scattered Clouds,290,2014-02-09 09:00:00
4:00 PM,87.8,64.4,46,29.74,6.2,WNW,15.0,-,N/A,,Scattered Clouds,290,2014-02-09 09:00:00
4:30 PM,86.0,68.0,55,29.74,6.2,WNW,11.5,-,N/A,,Scattered Clouds,300,2014-02-09 09:30:00
5:00 PM,86.0,69.8,58,29.77,6.2,WNW,11.5,-,N/A,,Scattered Clouds,300,2014-02-09 10:00:00
5:30 PM,84.2,69.8,62,29.77,6.2,WNW,13.8,-,N/A,,Scattered Clouds,290,2014-02-09 10:30:00
6:00 PM,82.4,69.8,66,29.77,6.2,WNW,12.7,-,N/A,,Scattered Clouds,290,2014-02-09 11:00:00
6:30 PM,82.4,69.8,66,29.77,6.2,WNW,9.2,-,N/A,,Scattered Clouds,300,2014-02-09 11:30:00
7:00 PM,83,71,59,29.72,6,WNW,5.8,,,,Scattered Clouds,300,2014-02-09 12:00:00
7:00 PM,80.6,69.8,70,29.77,6.2,WNW,9.2,-,N/A,,Scattered Clouds,290,2014-02-09 12:00:00
7:30 PM,80.6,69.8,70,29.80,6.2,West,9.2,-,N/A,,Partly Cloudy,280,2014-02-09 12:30:00
8:00 PM,80.6,69.8,70,29.80,6.2,WNW,8.1,-,N/A,,Partly Cloudy,300,2014-02-09 13:00:00
8:30 PM,80.6,69.8,70,29.80,5.6,WNW,9.2,-,N/A,,Partly Cloudy,290,2014-02-09 13:30:00
9:00 PM,80.6,69.8,70,29.83,5.6,WNW,8.1,-,N/A,,Partly Cloudy,290,2014-02-09 14:00:00
9:30 PM,78.8,69.8,74,29.83,5.6,WNW,6.9,-,N/A,,Partly Cloudy,290,2014-02-09 14:30:00
10:00 PM,82,72,64,29.78,6,North,15.0,,,,Scattered Clouds,350,2014-02-09 15:00:00
10:00 PM,78.8,69.8,74,29.83,5.6,WNW,6.9,-,N/A,,Partly Cloudy,290,2014-02-09 15:00:00
10:30 PM,78.8,69.8,74,29.83,5.6,WNW,8.1,-,N/A,,Partly Cloudy,300,2014-02-09 15:30:00
11:00 PM,78.8,69.8,74,29.83,5.6,WNW,6.9,-,N/A,,Partly Cloudy,290,2014-02-09 16:00:00
11:30 PM,78.8,69.8,74,29.83,5.6,West,6.9,-,N/A,,Partly Cloudy,280,2014-02-09 16:30:00